GW2678 Weather Reports


time (UTC)temp
F
wind
direction
speed
knots
gust
knots
rain 1hr
in
rain 24hr
in
rain mn
in
humidity
%
barometer
mb
20260906220218 90 213 5.2 9.6 0.00 0.00 0.00 29 1018.0
20260906220030 92 177 6.1 9.6 0.00 0.00 0.00 29 1016.2
20260906215718 89 190 2.6 7.8 0.00 0.00 0.00 31 1018.1
20260906215217 89 196 2.6 7.0 0.00 0.00 0.00 33 1018.0
20260906214717 89 139 2.6 8.7 0.00 0.00 0.00 33 1018.2
20260906214518 91 117 1.7 7.0 0.00 0.00 0.00 32 1016.4
20260906214217 89 169 2.6 8.7 0.00 0.00 0.00 33 1018.2
20260906213721 88 126 2.6 9.6 0.00 0.00 0.00 34 1018.4
20260906213717 88 130 3.5 9.6 0.00 0.00 0.00 34 1018.4
20260906213029 90 151 4.3 9.6 0.00 0.00 0.00 32 1016.7
20260906212717 88 165 2.6 10.4 0.00 0.00 0.00 33 1018.4
20260906212217 88 196 5.2 10.4 0.00 0.00 0.00 34 1018.6
20260906211717 88 121 5.2 10.4 0.00 0.00 0.00 33 1018.7
20260906211511 90 121 6.1 10.4 0.00 0.00 0.00 33 1016.9
20260906211217 88 88 5.2 10.4 0.00 0.00 0.00 33 1018.7
20260906210717 88 87 3.5 9.6 0.00 0.00 0.00 34 1018.8
20260906210217 87 99 3.5 8.7 0.00 0.00 0.00 33 1018.9
20260906210017 90 96 1.7 8.7 0.00 0.00 0.00 32 1017.3
20260906205715 88 193 2.6 8.7 0.00 0.00 0.00 32 1019.0
20260906205215 88 99 3.5 8.7 0.00 0.00 0.00 31 1019.0
20260906204714 89 186 4.3 7.8 0.00 0.00 0.00 31 1019.0
20260906204512 90 180 2.6 7.8 0.00 0.00 0.00 30 1017.4
20260906204443 88 159 4.3 7.8 0.00 0.00 0.00 31 1019.0
20260906203713 87 96 5.2 7.8 0.00 0.00 0.00 31 1019.1
20260906203444 87 165 5.2 7.8 0.00 0.00 0.00 34 1019.1
20260906203014 89 84 4.3 7.8 0.00 0.00 0.00 32 1017.5
20260906202714 87 65 4.3 7.8 0.00 0.00 0.00 33 1019.3
20260906202212 87 186 3.5 7.8 0.00 0.00 0.00 34 1019.1
20260906201710 87 96 4.3 7.8 0.00 0.00 0.00 34 1019.3
20260906201528 88 68 4.3 7.8 0.00 0.00 0.00 32 1017.6
20260906201442 87 101 3.5 7.8 0.00 0.00 0.00 34 1019.3
20260906200710 87 98 4.3 8.7 0.00 0.00 0.00 35 1019.4
20260906200211 86 138 4.3 8.7 0.00 0.00 0.00 35 1019.4
20260906200027 88 107 4.3 8.7 0.00 0.00 0.00 34 1017.7
20260906195942 86 102 3.5 8.7 0.00 0.00 0.00 35 1019.4
20260906195211 87 95 2.6 8.7 0.00 0.00 0.00 36 1019.5
20260906194942 87 100 1.7 8.7 0.00 0.00 0.00 35 1019.6
20260906194527 89 57 0.9 6.1 0.00 0.00 0.00 34 1017.9
20260906194211 86 196 2.6 8.7 0.00 0.00 0.00 37 1019.7
20260906193711 85 189 2.6 8.7 0.00 0.00 0.00 38 1019.7
20260906193212 86 104 0.9 5.2 0.00 0.00 0.00 37 1019.7
20260906193020 88 78 0.9 3.5 0.00 0.00 0.00 37 1018.0
20260906192942 85 318 0.9 4.3 0.00 0.00 0.00 38 1019.7
20260906192208 84 327 2.6 4.3 0.00 0.00 0.00 38 1019.9
20260906191708 83 339 3.5 8.7 0.00 0.00 0.00 37 1020.0
20260906191526 85 78 3.5 7.8 0.00 0.00 0.00 36 1018.3
20260906191208 83 119 4.3 8.7 0.00 0.00 0.00 37 1020.1
20260906190709 83 59 3.5 8.7 0.00 0.00 0.00 38 1020.2
20260906190206 83 23 3.5 8.7 0.00 0.00 0.00 38 1020.2
20260906190016 85 51 3.5 8.7 0.00 0.00 0.00 38 1018.6
20260906185707 83 106 3.5 7.8 0.00 0.00 0.00 39 1020.4
20260906185206 83 78 3.5 7.8 0.00 0.00 0.00 39 1020.6
20260906184711 83 100 2.6 7.8 0.00 0.00 0.00 40 1020.8
20260906184707 83 68 2.6 7.8 0.00 0.00 0.00 40 1020.6
20260906184532 85 113 2.6 7.8 0.00 0.00 0.00 40 1018.9
20260906183706 82 182 3.5 6.1 0.00 0.00 0.00 41 1020.9
20260906183206 82 148 2.6 7.8 0.00 0.00 0.00 43 1021.0
20260906183017 84 82 2.6 6.1 0.00 0.00 0.00 42 1019.2
20260906182707 82 121 2.6 7.8 0.00 0.00 0.00 42 1021.1
20260906182206 81 143 3.5 7.8 0.00 0.00 0.00 43 1021.1
20260906181706 80 103 3.5 7.8 0.00 0.00 0.00 44 1021.3
20260906181532 83 59 3.5 7.8 0.00 0.00 0.00 44 1019.7
20260906181206 81 48 3.5 7.8 0.00 0.00 0.00 45 1021.4
20260906180707 81 20 2.6 7.0 0.00 0.00 0.00 45 1021.4
20260906180206 81 86 1.7 7.0 0.00 0.00 0.00 46 1021.4
20260906180051 82 17 1.7 5.2 0.00 0.00 0.00 46 1019.9
20260906175706 80 84 1.7 7.0 0.00 0.00 0.00 48 1021.6
20260906175207 80 23 2.6 9.6 0.00 0.00 0.00 48 1021.7
20260906174707 79 58 2.6 9.6 0.00 0.00 0.00 49 1021.8
20260906174519 81 105 3.5 9.6 0.00 0.00 0.00 49 1020.3
20260906174207 79 93 3.5 9.6 0.00 0.00 0.00 50 1022.0
20260906173711 78 70 2.6 8.7 0.00 0.00 0.00 50 1022.2
20260906173707 79 46 3.5 9.6 0.00 0.00 0.00 51 1022.1
20260906173004 80 70 1.7 7.8 0.00 0.00 0.00 48 1020.5
20260906172706 78 83 3.5 8.7 0.00 0.00 0.00 47 1022.2
20260906172206 78 107 3.5 8.7 0.00 0.00 0.00 49 1022.3
20260906171938 78 55 2.6 9.6 0.00 0.00 0.00 49 1022.4
20260906171508 80 43 1.7 9.6 0.00 0.00 0.00 47 1020.7
20260906171439 78 64 2.6 9.6 0.00 0.00 0.00 49 1022.4
20260906170706 78 138 3.5 7.8 0.00 0.00 0.00 49 1022.4
20260906170207 77 102 3.5 7.8 0.00 0.00 0.00 50 1022.5
20260906170008 79 87 4.3 7.8 0.00 0.00 0.00 51 1020.9
20260906165707 77 105 2.6 5.2 0.00 0.00 0.00 51 1022.5
20260906165207 77 65 1.7 5.2 0.00 0.00 0.00 51 1022.5
20260906164706 77 336 0.9 3.5 0.00 0.00 0.00 52 1022.5
20260906164507 79 327 0.0 3.5 0.00 0.00 0.00 53 1020.9
20260906164206 76 0 0.9 7.0 0.00 0.00 0.00 54 1022.7
20260906163707 75 80 1.7 7.0 0.00 0.00 0.00 56 1022.7
20260906163206 75 78 2.6 7.8 0.00 0.00 0.00 57 1022.5
20260906163019 77 360 1.7 7.0 0.00 0.00 0.00 56 1020.9
20260906162706 74 24 2.6 7.8 0.00 0.00 0.00 56 1022.5
20260906162206 74 329 3.5 7.8 0.00 0.00 0.00 57 1022.5
20260906161705 74 28 3.5 7.8 0.00 0.00 0.00 56 1022.5
20260906161519 75 44 4.3 7.8 0.00 0.00 0.00 57 1020.8
20260906161205 73 69 2.6 6.1 0.00 0.00 0.00 58 1022.7
20260906160705 73 32 2.6 6.1 0.00 0.00 0.00 60 1022.5
20260906160205 72 11 3.5 7.8 0.00 0.00 0.00 60 1022.5
20260906160014 74 44 2.6 6.1 0.00 0.00 0.00 61 1020.8
20260906155935 72 49 2.6 7.8 0.00 0.00 0.00 62 1022.7
20260906155434 71 5 3.5 7.8 0.00 0.00 0.00 62 1022.7
20260906154702 71 348 3.5 7.8 0.00 0.00 0.00 63 1022.7
20260906154515 73 48 3.5 7.8 0.00 0.00 0.00 63 1020.8
20260906154202 71 34 3.5 6.1 0.00 0.00 0.00 63 1022.7
20260906153702 71 53 2.6 6.1 0.00 0.00 0.00 65 1022.7
20260906153204 71 42 2.6 6.1 0.00 0.00 0.00 64 1022.8
20260906153008 72 24 0.9 6.1 0.00 0.00 0.00 64 1021.0
20260906152702 70 55 2.6 6.1 0.00 0.00 0.00 65 1022.8
20260906152202 70 27 1.7 6.1 0.00 0.00 0.00 66 1022.8
20260906151702 69 80 2.6 6.1 0.00 0.00 0.00 68 1022.8
20260906151519 71 62 0.9 6.1 0.00 0.00 0.00 68 1021.1
20260906151202 69 59 3.5 6.1 0.00 0.00 0.00 68 1022.8
20260906150931 69 73 3.5 7.0 0.00 0.00 0.00 69 1022.9
20260906150200 68 30 3.5 7.0 0.00 0.00 0.00 69 1022.9
20260906150031 70 69 3.5 6.1 0.00 0.00 0.00 69 1021.4
20260906145700 68 66 2.6 7.0 0.00 0.00 0.00 70 1023.0
20260906145158 67 59 3.5 7.0 0.00 0.00 0.00 70 1022.9
20260906144927 68 58 3.5 8.7 0.00 0.00 0.00 69 1023.0
20260906144514 70 92 2.6 6.1 0.00 0.00 0.00 69 1021.4
20260906144156 68 67 3.5 8.7 0.00 0.00 0.00 70 1022.9
20260906143656 67 43 4.3 8.7 0.00 0.00 0.00 70 1022.8
20260906143152 67 68 4.3 8.7 0.00 0.00 0.00 70 1022.8
20260906143027 69 68 2.6 8.7 0.00 0.00 0.00 70 1021.2
20260906142656 67 19 4.3 7.8 0.00 0.00 0.00 72 1022.7
20260906142652 67 26 4.3 7.8 0.00 0.00 0.00 71 1022.7
20260906141650 67 41 4.3 7.8 0.00 0.00 0.00 72 1022.7
20260906141515 69 40 3.5 6.1 0.00 0.00 0.00 71 1021.2
20260906141150 67 57 4.3 7.8 0.00 0.00 0.00 72 1022.7
20260906140650 66 36 4.3 7.8 0.00 0.00 0.00 72 1022.8
20260906140150 66 36 3.5 7.0 0.00 0.00 0.00 74 1022.9
20260906140016 68 5 2.6 7.0 0.00 0.00 0.00 73 1021.3
20260906135650 66 32 1.7 7.0 0.00 0.00 0.00 76 1022.9
20260906135150 65 30 1.7 4.3 0.00 0.00 0.00 78 1022.8
20260906134650 65 327 2.6 4.3 0.00 0.00 0.00 79 1022.8
20260906134525 67 319 1.7 4.3 0.00 0.00 0.00 79 1021.1
20260906134150 64 348 2.6 4.3 0.00 0.00 0.00 80 1022.8
20260906133651 64 345 0.9 4.3 0.00 0.00 0.00 82 1022.8
20260906133150 64 344 0.0 3.5 0.00 0.00 0.00 82 1022.9
20260906133031 66 343 0.0 0.9 0.00 0.00 0.00 81 1021.2
20260906132648 64 338 0.0 0.0 0.00 0.00 0.00 82 1022.8
20260906132148 64 290 0.0 0.0 0.00 0.00 0.00 82 1022.7
20260906131919 63 290 0.0 0.0 0.00 0.00 0.00 83 1022.7
20260906131531 65 290 0.0 0.0 0.00 0.00 0.00 82 1021.2
20260906131149 63 290 0.0 0.0 0.00 0.00 0.00 82 1022.5
20260906130648 63 290 0.0 0.0 0.00 0.00 0.00 83 1022.7
20260906130420 63 290 0.0 0.0 0.00 0.00 0.00 83 1022.8
20260906130018 65 352 0.0 0.0 0.00 0.00 0.00 82 1021.0
20260906125648 63 339 0.0 0.0 0.00 0.00 0.00 83 1022.7
20260906125148 63 339 0.0 4.3 0.00 0.00 0.00 83 1022.5
20260906124653 63 339 0.0 4.3 0.00 0.00 0.00 82 1022.5
20260906124649 63 339 0.0 4.3 0.00 0.00 0.00 82 1022.4
20260906124509 65 339 0.0 0.9 0.00 0.00 0.00 82 1020.8
20260906123646 63 339 0.0 4.3 0.00 0.00 0.00 81 1022.4
20260906123146 63 340 0.0 3.5 0.00 0.00 0.00 80 1022.4
20260906123013 65 340 0.0 1.7 0.00 0.00 0.00 79 1020.7
20260906122646 63 340 0.9 3.5 0.00 0.00 0.00 80 1022.4
20260906122146 63 340 0.9 3.5 0.00 0.00 0.00 79 1022.4
20260906121646 63 23 0.9 6.1 0.00 0.00 0.00 79 1022.4
20260906121532 65 23 0.9 4.3 0.00 0.00 0.00 78 1020.7
20260906121146 63 38 0.9 6.1 0.00 0.00 0.00 78 1022.4
20260906120646 64 25 2.6 6.1 0.00 0.00 0.00 77 1022.3
20260906120147 64 342 2.6 6.1 0.00 0.00 0.00 77 1022.2
20260906120018 66 28 2.6 6.1 0.00 0.00 0.00 76 1020.5
20260906115644 64 17 1.7 5.2 0.00 0.00 0.00 76 1022.2
20260906115144 64 19 0.9 3.5 0.00 0.00 0.00 76 1022.2
20260906114915 64 22 0.9 3.5 0.00 0.00 0.00 76 1022.3
20260906114528 66 13 0.9 3.5 0.00 0.00 0.00 75 1020.6
20260906114143 64 9 0.9 3.5 0.00 0.00 0.00 75 1022.3
20260906113644 65 28 0.9 3.5 0.00 0.00 0.00 75 1022.4
20260906113145 65 11 0.9 2.6 0.00 0.00 0.00 75 1022.4
20260906113027 67 15 0.0 3.5 0.00 0.00 0.00 74 1020.7
20260906112642 65 15 0.9 3.5 0.00 0.00 0.00 74 1022.3
20260906112145 65 19 0.9 5.2 0.00 0.00 0.00 74 1022.2
20260906112141 65 351 1.7 5.2 0.00 0.00 0.00 74 1022.2
20260906111521 67 348 0.0 5.2 0.00 0.00 0.00 73 1020.6
20260906111139 65 0 2.6 5.2 0.00 0.00 0.00 74 1022.2
20260906110640 65 327 2.6 5.2 0.00 0.00 0.00 73 1022.2
20260906110140 65 342 2.6 5.2 0.00 0.00 0.00 73 1022.2
20260906110014 67 348 2.6 5.2 0.00 0.00 0.00 73 1020.6
20260906105640 65 343 2.6 5.2 0.00 0.00 0.00 73 1022.2
20260906105137 65 347 1.7 5.2 0.00 0.00 0.00 73 1022.2
20260906104640 65 0 0.9 3.5 0.00 0.00 0.00 72 1022.1
20260906104636 65 339 2.6 4.3 0.00 0.00 0.00 72 1022.2
20260906104524 67 338 1.7 4.3 0.00 0.00 0.00 71 1020.6
20260906103636 65 0 0.0 2.6 0.00 0.00 0.00 71 1022.3
20260906103136 65 0 0.0 0.9 0.00 0.00 0.00 70 1022.2
20260906103024 67 346 0.0 0.0 0.00 0.00 0.00 69 1020.6
20260906102908 65 346 0.0 0.0 0.00 0.00 0.00 68 1022.1
20260906102136 65 346 0.0 0.0 0.00 0.00 0.00 68 1022.2
20260906101636 65 30 0.0 0.0 0.00 0.00 0.00 67 1022.2
20260906101527 67 30 0.0 0.0 0.00 0.00 0.00 66 1020.6
20260906101135 65 30 0.0 0.0 0.00 0.00 0.00 66 1022.2
20260906100636 65 30 0.0 0.0 0.00 0.00 0.00 65 1022.3
20260906100136 66 30 0.0 0.0 0.00 0.00 0.00 64 1022.1
20260906100018 68 30 0.0 0.0 0.00 0.00 0.00 63 1020.6
20260906095906 66 30 0.0 3.5 0.00 0.00 0.00 63 1022.2
20260906095408 66 30 0.0 3.5 0.00 0.00 0.00 63 1022.1
20260906094636 66 30 0.9 3.5 0.00 0.00 0.00 63 1022.0
20260906094535 68 30 0.0 4.3 0.00 0.00 0.00 62 1020.6
20260906093633 66 26 0.9 4.3 0.00 0.00 0.00 64 1021.7
20260906093138 66 341 0.9 4.3 0.00 0.00 0.00 63 1021.6
20260906093134 66 341 0.9 3.5 0.00 0.00 0.00 63 1021.6
20260906093032 68 341 0.0 3.5 0.00 0.00 0.00 63 1020.1
20260906092134 66 342 0.9 4.3 0.00 0.00 0.00 62 1021.7
20260906091633 66 339 1.7 5.2 0.00 0.00 0.00 61 1021.7
20260906091527 68 339 0.0 5.2 0.00 0.00 0.00 61 1020.0
20260906091134 67 340 2.6 5.2 0.00 0.00 0.00 61 1021.5
20260906090632 67 351 1.7 4.3 0.00 0.00 0.00 61 1021.3
20260906090132 67 22 1.7 3.5 0.00 0.00 0.00 59 1021.3
20260906090031 69 22 1.7 3.5 0.00 0.00 0.00 58 1019.7
20260906085632 67 20 0.9 2.6 0.00 0.00 0.00 59 1021.5
20260906085135 67 17 0.0 5.2 0.00 0.00 0.00 57 1021.4
20260906085131 67 17 0.0 1.7 0.00 0.00 0.00 58 1021.4
20260906084523 69 17 0.0 0.0 0.00 0.00 0.00 56 1019.8
20260906084403 67 17 0.9 5.2 0.00 0.00 0.00 56 1021.4
20260906083632 68 17 1.7 5.2 0.00 0.00 0.00 56 1021.4
20260906083132 68 5 3.5 7.0 0.00 0.00 0.00 54 1021.4
20260906083035 70 30 2.6 7.0 0.00 0.00 0.00 54 1019.8
20260906082631 68 41 3.5 7.0 0.00 0.00 0.00 53 1021.4
20260906082132 68 47 3.5 7.0 0.00 0.00 0.00 53 1021.4
20260906081632 69 28 3.5 7.0 0.00 0.00 0.00 53 1021.4
20260906081524 71 26 3.5 7.0 0.00 0.00 0.00 52 1019.7
20260906081132 69 0 2.6 7.0 0.00 0.00 0.00 52 1021.3
20260906080631 69 13 3.5 7.0 0.00 0.00 0.00 52 1021.5
20260906080132 69 32 3.5 7.0 0.00 0.00 0.00 52 1021.6
20260906080029 71 22 3.5 7.0 0.00 0.00 0.00 51 1019.9
20260906075632 69 31 2.6 6.1 0.00 0.00 0.00 50 1021.5
20260906075132 69 346 1.7 5.2 0.00 0.00 0.00 50 1021.6
20260906074631 69 355 1.7 5.2 0.00 0.00 0.00 50 1021.6
20260906074533 71 31 0.0 3.5 0.00 0.00 0.00 50 1019.9
20260906074132 69 31 2.6 6.1 0.00 0.00 0.00 49 1021.6
20260906073632 69 36 3.5 6.1 0.00 0.00 0.00 48 1021.6
20260906073132 69 355 2.6 5.2 0.00 0.00 0.00 50 1021.5
20260906073039 71 350 2.6 5.2 0.00 0.00 0.00 49 1019.9
20260906072632 69 22 2.6 5.2 0.00 0.00 0.00 50 1021.5
20260906072132 69 22 3.5 6.1 0.00 0.00 0.00 50 1021.5
20260906071632 69 35 2.6 6.1 0.00 0.00 0.00 50 1021.5
20260906071527 71 47 1.7 6.1 0.00 0.00 0.00 49 1019.9
20260906071132 69 46 3.5 6.1 0.00 0.00 0.00 49 1021.5
20260906070631 70 34 3.5 6.1 0.00 0.00 0.00 47 1021.4
20260906070402 70 32 2.6 5.2 0.00 0.00 0.00 47 1021.4
20260906070032 72 49 3.5 5.2 0.00 0.00 0.00 47 1019.8
20260906065632 70 41 2.6 5.2 0.00 0.00 0.00 49 1021.5
20260906065131 70 345 1.7 5.2 0.00 0.00 0.00 48 1021.4
20260906064632 70 350 1.7 4.3 0.00 0.00 0.00 50 1021.4
20260906064528 72 346 0.0 4.3 0.00 0.00 0.00 50 1019.8
20260906064402 70 346 1.7 4.3 0.00 0.00 0.00 50 1021.4
20260906063632 70 5 0.9 3.5 0.00 0.00 0.00 49 1021.5
20260906063130 70 266 0.0 0.0 0.00 0.00 0.00 47 1021.6
20260906063024 72 266 0.0 0.0 0.00 0.00 0.00 46 1020.2
20260906062901 70 266 0.0 0.0 0.00 0.00 0.00 46 1021.8
20260906062130 71 266 0.0 0.0 0.00 0.00 0.00 45 1021.8
20260906061629 71 266 0.0 3.5 0.00 0.00 0.00 46 1021.8
20260906061536 73 266 0.0 0.0 0.00 0.00 0.00 46 1020.3
20260906061129 71 266 0.0 3.5 0.00 0.00 0.00 48 1021.7
20260906060628 71 266 0.0 3.5 0.00 0.00 0.00 47 1021.7
20260906060130 71 264 0.9 3.5 0.00 0.00 0.00 46 1021.8
20260906060126 71 266 0.9 3.5 0.00 0.00 0.00 45 1021.7
20260906060032 73 280 0.0 3.5 0.00 0.00 0.00 45 1020.3
20260906055126 71 267 0.9 3.5 0.00 0.00 0.00 45 1021.8
20260906054625 71 254 0.9 3.5 0.00 0.00 0.00 45 1021.7
20260906054507 73 272 0.9 2.6 0.00 0.00 0.00 45 1020.2
20260906054125 72 75 0.0 1.7 0.00 0.00 0.00 45 1021.8
20260906053626 72 85 0.0 1.7 0.00 0.00 0.00 44 1021.7
20260906053126 72 85 0.9 5.2 0.00 0.00 0.00 43 1021.7
20260906053006 74 85 0.0 3.5 0.00 0.00 0.00 43 1020.1
20260906052857 72 85 1.7 5.2 0.00 0.00 0.00 43 1021.5
20260906052125 72 85 2.6 7.8 0.00 0.00 0.00 43 1021.5
20260906051625 73 95 2.6 7.8 0.00 0.00 0.00 42 1021.5
20260906051507 75 101 1.7 7.8 0.00 0.00 0.00 42 1019.9
20260906051125 73 124 3.5 7.8 0.00 0.00 0.00 42 1021.6
20260906050858 73 119 2.6 7.8 0.00 0.00 0.00 43 1021.5
20260906050126 73 120 0.9 4.3 0.00 0.00 0.00 42 1021.1
20260906050009 75 256 0.0 4.3 0.00 0.00 0.00 41 1019.6
20260906045625 73 263 2.6 6.1 0.00 0.00 0.00 43 1021.1
20260906045125 73 257 2.6 6.1 0.00 0.00 0.00 44 1021.1
20260906044625 74 225 1.7 6.1 0.00 0.00 0.00 42 1021.1
20260906044517 76 165 2.6 4.3 0.00 0.00 0.00 41 1019.5
20260906044126 74 143 0.9 6.1 0.00 0.00 0.00 42 1021.0
20260906043625 74 143 1.7 6.1 0.00 0.00 0.00 41 1020.9
20260906043356 74 131 2.6 6.1 0.00 0.00 0.00 39 1020.8
20260906043004 76 103 1.7 6.1 0.00 0.00 0.00 37 1018.9
20260906042626 75 91 1.7 6.1 0.00 0.00 0.00 38 1020.4
20260906042125 75 89 0.9 6.1 0.00 0.00 0.00 38 1020.6
20260906041856 75 317 0.0 4.3 0.00 0.00 0.00 39 1020.3
20260906041512 77 317 0.0 4.3 0.00 0.00 0.00 38 1018.7
20260906041126 76 317 1.7 9.6 0.00 0.00 0.00 38 1020.3
20260906040624 76 333 3.5 9.6 0.00 0.00 0.00 37 1020.2
20260906040123 76 5 4.3 9.6 0.00 0.00 0.00 36 1020.1
20260906040011 78 23 4.3 9.6 0.00 0.00 0.00 36 1018.5
20260906035623 76 0 4.3 9.6 0.00 0.00 0.00 35 1020.1
20260906035123 77 42 4.3 10.4 0.00 0.00 0.00 36 1020.1
20260906034623 77 348 3.5 10.4 0.00 0.00 0.00 36 1020.3
20260906034511 79 43 5.2 10.4 0.00 0.00 0.00 36 1018.7
20260906034124 77 340 2.6 9.6 0.00 0.00 0.00 37 1020.2
20260906033623 77 331 3.5 9.6 0.00 0.00 0.00 37 1020.3
20260906033354 77 338 4.3 9.6 0.00 0.00 0.00 38 1020.2
20260906033025 79 5 3.5 9.6 0.00 0.00 0.00 37 1018.6
20260906032853 77 350 5.2 9.6 0.00 0.00 0.00 37 1020.2
20260906032121 77 23 5.2 8.7 0.00 0.00 0.00 37 1020.2
20260906031621 77 32 5.2 9.6 0.00 0.00 0.00 36 1020.3
20260906031523 79 25 5.2 8.7 0.00 0.00 0.00 35 1018.5
20260906031121 78 53 5.2 9.6 0.00 0.00 0.00 35 1020.3
20260906030621 78 48 5.2 9.6 0.00 0.00 0.00 34 1020.2
20260906030121 79 66 4.3 9.6 0.00 0.00 0.00 33 1020.0
20260906030010 82 68 5.2 8.7 0.00 0.00 0.00 32 1018.3
20260906025622 80 52 3.5 7.8 0.00 0.00 0.00 32 1020.0
20260906025122 81 44 2.6 7.0 0.00 0.00 0.00 32 1019.7
20260906024621 81 355 2.6 7.0 0.00 0.00 0.00 32 1019.7
20260906024514 83 292 0.9 7.8 0.00 0.00 0.00 31 1017.8
20260906024121 81 17 2.6 7.8 0.00 0.00 0.00 32 1019.6
20260906023622 81 309 1.7 7.8 0.00 0.00 0.00 31 1019.5
20260906023353 81 355 1.7 7.8 0.00 0.00 0.00 32 1019.4
20260906023011 83 281 0.9 4.3 0.00 0.00 0.00 31 1017.7
20260906022631 81 320 1.7 7.8 0.00 0.00 0.00 32 1019.3
20260906022627 81 304 1.7 7.8 0.00 0.00 0.00 32 1019.4
20260906021622 81 296 1.7 7.8 0.00 0.00 0.00 31 1019.3
20260906021507 83 301 1.7 3.5 0.00 0.00 0.00 31 1017.6
20260906021121 81 287 0.9 3.5 0.00 0.00 0.00 33 1019.3
20260906020624 80 292 0.9 11.3 0.00 0.00 0.00 31 1019.3
20260906020119 80 325 2.6 11.3 0.00 0.00 0.00 30 1019.4
20260906020029 83 306 0.9 11.3 0.00 0.00 0.00 31 1017.7
20260906015619 81 312 4.3 11.3 0.00 0.00 0.00 31 1019.4
20260906015119 81 355 4.3 11.3 0.00 0.00 0.00 31 1019.4
20260906014620 82 20 2.6 6.1 0.00 0.00 0.00 29 1019.3
20260906014520 84 16 3.5 6.1 0.00 0.00 0.00 29 1017.6
20260906014121 82 56 0.9 4.3 0.00 0.00 0.00 30 1019.3
20260906013851 82 326 0.9 3.5 0.00 0.00 0.00 29 1019.0
20260906013119 83 315 1.7 3.5 0.00 0.00 0.00 29 1019.0
20260906013017 85 298 0.9 3.5 0.00 0.00 0.00 29 1017.3
20260906012848 83 350 1.7 7.8 0.00 0.00 0.00 29 1019.0
20260906012117 83 11 1.7 7.8 0.00 0.00 0.00 30 1019.1
20260906011618 84 283 1.7 7.8 0.00 0.00 0.00 29 1019.1
20260906011522 86 326 1.7 7.8 0.00 0.00 0.00 28 1017.4
20260906011117 84 321 2.6 7.8 0.00 0.00 0.00 28 1019.3
20260906010617 84 347 3.5 13.9 0.00 0.00 0.00 28 1019.1
20260906010118 84 304 3.5 13.9 0.00 0.00 0.00 27 1019.4
20260906010011 86 308 2.6 13.9 0.00 0.00 0.00 27 1017.6
20260906005616 85 302 3.5 13.9 0.00 0.00 0.00 28 1019.4
20260906005117 85 339 4.3 13.9 0.00 0.00 0.00 27 1019.4
20260906004848 85 355 4.3 10.4 0.00 0.00 0.00 27 1019.4
20260906004509 87 336 3.5 10.4 0.00 0.00 0.00 26 1017.6
20260906004117 85 0 4.3 10.4 0.00 0.00 0.00 26 1019.3
20260906003620 85 273 3.5 8.7 0.00 0.00 0.00 26 1019.4
20260906003115 86 325 3.5 8.7 0.00 0.00 0.00 27 1019.3
20260906003046 88 285 2.6 8.7 0.00 0.00 0.00 26 1017.7
20260906002615 86 302 3.5 8.7 0.00 0.00 0.00 27 1019.5
20260906002116 87 323 3.5 12.2 0.00 0.00 0.00 26 1019.5
20260906001615 87 332 3.5 12.2 0.00 0.00 0.00 26 1019.4
20260906001518 89 305 2.6 12.2 0.00 0.00 0.00 25 1017.7
20260906001115 88 345 3.5 12.2 0.00 0.00 0.00 24 1019.4
20260906000614 88 326 1.7 12.2 0.00 0.00 0.00 24 1019.3
20260906000117 89 310 1.7 7.8 0.00 0.00 0.00 23 1019.3
20260906000024 91 335 0.9 4.3 0.00 0.00 0.00 23 1017.5
20260905235615 89 322 1.7 7.8 0.00 0.00 0.00 22 1019.1
20260905235114 89 292 1.7 7.8 0.00 0.00 0.00 22 1019.1
20260905234844 90 298 2.6 7.8 0.00 0.00 0.00 21 1019.1
20260905234508 92 286 1.7 7.8 0.00 0.00 0.00 21 1017.6
20260905234113 90 310 1.7 7.0 0.00 0.00 0.00 21 1019.1
20260905233613 90 294 1.7 7.0 0.00 0.00 0.00 22 1019.1
20260905233113 89 264 2.6 8.7 0.00 0.00 0.00 23 1019.0
20260905233012 91 290 1.7 7.0 0.00 0.00 0.00 22 1017.5
20260905232613 89 254 2.6 8.7 0.00 0.00 0.00 21 1019.0
20260905232344 90 302 3.5 8.7 0.00 0.00 0.00 21 1019.0
20260905231613 90 273 1.7 8.7 0.00 0.00 0.00 21 1019.0
20260905231509 92 265 3.5 8.7 0.00 0.00 0.00 20 1017.3
20260905231112 91 276 0.9 6.1 0.00 0.00 0.00 20 1018.8
20260905230613 91 333 0.9 3.5 0.00 0.00 0.00 20 1018.9
20260905230113 91 335 0.9 3.5 0.00 0.00 0.00 20 1018.8
20260905230015 92 333 0.0 3.5 0.00 0.00 0.00 19 1017.3
20260905225613 90 182 0.0 0.9 0.00 0.00 0.00 19 1018.8
20260905225112 90 183 0.0 7.0 0.00 0.00 0.00 20 1018.7
20260905224613 90 183 0.9 7.0 0.00 0.00 0.00 20 1018.8
20260905224529 92 136 0.0 4.3 0.00 0.00 0.00 19 1017.2
20260905224113 90 134 2.6 7.0 0.00 0.00 0.00 19 1018.8
20260905223613 90 153 2.6 7.0 0.00 0.00 0.00 19 1018.8
20260905223110 91 138 1.7 7.0 0.00 0.00 0.00 19 1018.8
20260905223024 93 136 2.6 5.2 0.00 0.00 0.00 18 1017.2
20260905222609 91 161 0.9 7.0 0.00 0.00 0.00 19 1018.8
20260905222339 91 44 1.7 7.0 0.00 0.00 0.00 19 1018.7
20260905221608 91 137 3.5 7.0 0.00 0.00 0.00 19 1018.7
20260905221515 93 137 2.6 7.0 0.00 0.00 0.00 18 1017.2
20260905221339 91 148 3.5 7.0 0.00 0.00 0.00 19 1018.7
20260905220839 92 174 2.6 7.0 0.00 0.00 0.00 19 1018.8